,

(GMT )
Al Udeid

Weather History for KQIR - October, 2013

Change the Weather History Date:

Thursday, October 3, 2013

  Actual Average Record
Temperature  
Mean Temperature 90 °F -  
Max Temperature 103 °F - - ()
Min Temperature 77 °F - - ()
Cooling Degree Days 25    
Growing Degree Days 40 (Base 50)    
Moisture  
Dew Point 70 °F    
Average Humidity 60    
Maximum Humidity 94    
Minimum Humidity 19    
Precipitation  
Precipitation 0.00 in - - ()
Sea Level Pressure  
Sea Level Pressure 29.79 in    
Wind  
Wind Speed 5 mph ()    
Max Wind Speed 9 mph    
Max Gust Speed -    
Visibility 6.1 miles    
Events      
Averages and records for this station are not official NWS values.
T = Trace of Precipitation, MM = Missing Value Source: Averaged Metar Reports

Daily Weather History Graph

Daily Weather History Graph

Search for Another Location

Airport or City:

Trip Planner

Search our weather history database for the weather conditions in past years. The results will help you decide how hot, cold, wet, or windy it might be!

Date:

Astronomy

Oct. 03, 2013 Rise Set
Actual Time 5:27 AM +03 5:19 PM +03
Civil Twilight 5:04 AM +03 5:42 PM +03
Nautical Twilight 4:38 AM +03 6:08 PM +03
Astronomical Twilight 4:11 AM +03 6:35 PM +03
Moon 3:45 AM +03 (10/3) 4:10 PM +03 (10/3)
Length of Visible Light 12h 37m
Length of Day
11h 51m
Waning Crescent, 3% of the Moon is Illuminated
Oct 3
Waning Crescent
Oct 5
New
Oct 12
First Quarter
Oct 19
Full
Oct 27
Last Quarter

Hourly Weather History & Observations

Time (+03) Temp. Heat Index Dew Point Humidity Pressure Visibility Wind Dir Wind Speed Gust Speed Precip Events Conditions
12:55 AM 80.1 °F 83.3 °F 70.2 °F 72% 29.78 in 6.2 mi WNW 8.1 mph - N/A   Clear
1:55 AM 79.2 °F - 72.0 °F 78% 29.78 in 6.2 mi NW 6.9 mph - N/A   Clear
2:55 AM 78.6 °F - 73.6 °F 84% 29.78 in 6.2 mi NW 6.9 mph - N/A   Clear
3:55 AM 78.6 °F - 75.2 °F 89% 29.78 in 6.2 mi NW 8.1 mph - N/A   Clear
4:55 AM 78.3 °F - 75.9 °F 92% 29.80 in 6.2 mi NNW 8.1 mph - N/A   Clear
5:55 AM 77.5 °F - 75.6 °F 94% 29.81 in 5.6 mi Calm Calm - N/A   Clear
6:55 AM 79.3 °F - 76.3 °F 90% 29.83 in 5.0 mi NW 3.5 mph - N/A   Clear
7:55 AM 84.9 °F 94.1 °F 75.7 °F 74% 29.84 in 6.2 mi NNW 6.9 mph - N/A   Clear
8:55 AM 89.8 °F 98.1 °F 73.2 °F 58% 29.84 in 6.2 mi NNW 6.9 mph - N/A   Clear
9:55 AM 94.5 °F 96.1 °F 63.7 °F 36% 29.85 in 6.2 mi Calm Calm - N/A   Clear
10:55 AM 98.1 °F 99.6 °F 62.2 °F 31% 29.82 in 6.2 mi Calm Calm - N/A   Clear
11:55 AM 99.9 °F 99.9 °F 59.0 °F 26% 29.80 in 6.2 mi Calm Calm - N/A   Clear
12:55 PM 102.2 °F 100.9 °F 54.7 °F 21% 29.78 in 6.2 mi NW 3.5 mph - N/A   Clear
1:55 PM 103.6 °F 101.8 °F 53.1 °F 19% 29.76 in 6.2 mi Variable 6.9 mph - N/A   Clear
2:55 PM 101.7 °F 105.2 °F 64.8 °F 30% 29.75 in 6.2 mi ENE 6.9 mph - N/A   Clear
3:55 PM 99.3 °F 107.0 °F 70.3 °F 39% 29.75 in 6.2 mi East 9.2 mph - N/A   Clear
4:55 PM 96.1 °F 107.1 °F 73.9 °F 49% 29.76 in 6.2 mi East 8.1 mph - N/A   Clear
5:55 PM 94.5 °F 103.3 °F 72.3 °F 49% 29.77 in 6.2 mi NE 8.1 mph - N/A   Clear
6:55 PM 91.8 °F 100.9 °F 73.4 °F 55% 29.78 in 6.2 mi NE 6.9 mph - N/A   Clear
7:55 PM 89.8 °F 98.6 °F 73.9 °F 59% 29.78 in 6.2 mi NE 3.5 mph - N/A   Clear
8:55 PM 87.3 °F 96.8 °F 75.2 °F 67% 29.79 in 6.2 mi Calm Calm - N/A   Clear
9:55 PM 83.7 °F 89.4 °F 72.5 °F 69% 29.79 in 6.2 mi NNW 5.8 mph - N/A   Clear
10:55 PM 82.8 °F 89.2 °F 73.9 °F 75% 29.79 in 6.2 mi NNW 8.1 mph - N/A   Clear
11:55 PM 81.0 °F 86.9 °F 75.2 °F 83% 29.78 in 6.2 mi NNW 9.2 mph - N/A   Clear